SV1BYK-2 Weather Reports


Display with metric or nautical units.
time (UTC)temp
F
wind
direction
speed
MPH
gust
MPH
rain 1hr
in
rain 24hr
in
rain mn
in
humidity
%
barometer
mb
20260906084504 96 106 2.0 4.0 0.00 0.00 0.00 25 1011.1
20260906083815 96 148 2.0 2.0 0.00 0.00 0.00 26 1010.9
20260906082918 96 239 0.0 2.0 0.00 0.00 0.00 26 1010.9
20260906082015 95 93 0.0 4.0 0.00 0.00 0.00 26 1011.3
20260906081117 94 111 2.0 4.0 0.00 0.00 0.00 26 1011.2
20260906080004 95 107 0.0 2.0 0.00 0.00 0.00 26 1011.4
20260906075616 95 130 1.0 4.0 0.00 0.00 0.00 26 1011.3
20260906074504 93 117 2.0 4.0 0.00 0.00 0.00 27 1011.1
20260906073604 94 235 0.0 2.0 0.00 0.00 0.00 27 1011.2
20260906072704 93 247 1.0 2.0 0.00 0.00 0.00 28 1011.2
20260906071803 91 247 1.0 2.0 0.00 0.00 0.00 29 1011.0
20260906071113 91 247 0.0 2.0 0.00 0.00 0.00 30 1011.2
20260906070004 90 247 1.0 2.0 0.00 0.00 0.00 29 1011.0
20260906065403 87 247 0.0 2.0 0.00 0.00 0.00 32 1011.2
20260906064714 88 247 0.0 2.0 0.00 0.00 0.00 31 1010.9
20260906063817 87 247 0.0 2.0 0.00 0.00 0.00 32 1010.9
20260906062704 87 261 0.0 2.0 0.00 0.00 0.00 32 1010.7
20260906062016 85 270 1.0 2.0 0.00 0.00 0.00 34 1010.5
20260906061114 84 282 0.0 2.0 0.00 0.00 0.00 36 1010.4
20260906060216 83 292 0.0 2.0 0.00 0.00 0.00 37 1010.5
20260906055617 82 279 1.0 2.0 0.00 0.00 0.00 37 1010.4
20260906054503 82 292 0.0 2.0 0.00 0.00 0.00 38 1010.5
20260906053817 82 292 0.0 2.0 0.00 0.00 0.00 37 1010.4
20260906052914 80 280 1.0 4.0 0.00 0.00 0.00 38 1010.5
20260906052017 80 297 0.0 4.0 0.00 0.00 0.00 38 1010.4
20260906050904 78 299 1.0 4.0 0.00 0.00 0.00 39 1010.4
20260906050004 77 279 2.0 4.0 0.00 0.00 0.00 41 1010.6
20260906045613 76 263 0.0 2.0 0.00 0.00 0.00 41 1010.5
20260906044715 76 247 1.0 2.0 0.00 0.00 0.00 41 1010.4
20260906043813 75 247 0.0 2.0 0.00 0.00 0.00 41 1010.3
20260906042915 75 247 1.0 2.0 0.00 0.00 0.00 42 1010.3
20260906042018 75 247 0.0 2.0 0.00 0.00 0.00 41 1009.9
20260906040903 75 247 0.0 2.0 0.00 0.00 0.00 42 1010.1
20260906040004 75 251 0.0 2.0 0.00 0.00 0.00 41 1010.1
20260906035403 75 247 0.0 2.0 0.00 0.00 0.00 41 1009.8
20260906034504 75 245 1.0 2.0 0.00 0.00 0.00 41 1010.1
20260906033813 75 225 0.0 2.0 0.00 0.00 0.00 41 1009.8
20260906032703 75 225 0.0 2.0 0.00 0.00 0.00 41 1010.0
20260906032013 75 225 0.0 2.0 0.00 0.00 0.00 41 1009.7
20260906030903 76 245 0.0 2.0 0.00 0.00 0.00 41 1009.7
20260906030218 76 246 1.0 2.0 0.00 0.00 0.00 41 1010.0
20260906025614 76 247 0.0 2.0 0.00 0.00 0.00 41 1009.7
20260906024717 76 247 0.0 2.0 0.00 0.00 0.00 41 1009.5
20260906023814 76 247 0.0 2.0 0.00 0.00 0.00 41 1009.4
20260906022704 76 245 0.0 2.0 0.00 0.00 0.00 41 1009.4
20260906021803 76 241 0.0 2.0 0.00 0.00 0.00 41 1009.6
20260906021116 76 247 0.0 2.0 0.00 0.00 0.00 41 1009.4
20260906020004 76 244 0.0 2.0 0.00 0.00 0.00 41 1009.4
20260906015403 76 244 0.0 2.0 0.00 0.00 0.00 41 1009.4
20260906014503 76 251 0.0 2.0 0.00 0.00 0.00 40 1009.5
20260906013815 76 255 0.0 2.0 0.00 0.00 0.00 40 1009.4
20260906012703 76 0 0.0 0.0 0.00 0.00 0.00 40 1009.5
20260906011803 76 0 0.0 0.0 0.00 0.00 0.00 40 1009.7
20260906011117 76 270 0.0 2.0 0.00 0.00 0.00 40 1009.7
20260906010214 77 270 0.0 2.0 0.00 0.00 0.00 40 1009.7
20260906005404 77 270 0.0 4.0 0.00 0.00 0.00 39 1009.6
20260906004713 77 270 2.0 4.0 0.00 0.00 0.00 39 1009.8
20260906003815 76 270 0.0 2.0 0.00 0.00 0.00 40 1009.3
20260906002703 77 270 0.0 2.0 0.00 0.00 0.00 39 1009.5
20260906002015 77 270 0.0 2.0 0.00 0.00 0.00 39 1009.8
20260906000903 77 270 1.0 2.0 0.00 0.00 0.00 39 1009.6
20260906000215 77 265 0.0 2.0 0.00 0.00 0.00 39 1009.7
20260905235404 77 242 1.0 2.0 0.00 0.00 0.00 39 1009.6
20260905234713 78 236 0.0 2.0 0.00 0.00 0.00 39 1009.6
20260905233816 78 239 0.0 2.0 0.00 0.00 0.00 39 1009.9
20260905232704 78 247 0.0 2.0 0.00 0.00 0.00 39 1010.0
20260905232016 79 241 0.0 2.0 0.00 0.00 0.00 39 1010.1
20260905231113 79 241 0.0 4.0 0.00 0.00 0.00 38 1010.3
20260905230004 79 225 0.0 2.0 0.00 0.00 0.00 39 1010.2
20260905225617 78 225 0.0 2.0 0.00 0.00 0.00 39 1010.2
20260905224503 79 228 0.0 2.0 0.00 0.00 0.00 38 1010.3
20260905223603 79 247 0.0 2.0 0.00 0.00 0.00 38 1010.4
20260905222914 79 247 0.0 2.0 0.00 0.00 0.00 38 1010.5
20260905221804 79 0 0.0 0.0 0.00 0.00 0.00 38 1010.6
20260905221113 79 0 0.0 0.0 0.00 0.00 0.00 38 1010.4
20260905220216 79 0 0.0 0.0 0.00 0.00 0.00 38 1010.4
20260905215617 79 247 0.0 2.0 0.00 0.00 0.00 38 1010.4
20260905214715 80 247 0.0 2.0 0.00 0.00 0.00 38 1010.2
20260905213817 80 281 0.0 2.0 0.00 0.00 0.00 38 1010.4
20260905212914 81 292 0.0 2.0 0.00 0.00 0.00 36 1010.4
20260905212017 81 286 0.0 2.0 0.00 0.00 0.00 37 1010.4
20260905210904 81 292 0.0 2.0 0.00 0.00 0.00 38 1010.3
20260905210222 81 0 0.0 0.0 0.00 0.00 0.00 37 1010.3
20260905205613 81 0 0.0 0.0 0.00 0.00 0.00 37 1010.4
20260905204715 81 0 0.0 0.0 0.00 0.00 0.00 37 1010.4
20260905203813 82 292 0.0 2.0 0.00 0.00 0.00 36 1010.4
20260905202915 81 0 0.0 0.0 0.00 0.00 0.00 37 1010.4
20260905202017 81 0 0.0 0.0 0.00 0.00 0.00 36 1010.4
20260905200903 82 0 0.0 0.0 0.00 0.00 0.00 36 1010.2
20260905200004 82 0 0.0 0.0 0.00 0.00 0.00 35 1010.4
20260905195403 83 292 0.0 2.0 0.00 0.00 0.00 34 1010.6
20260905194504 83 0 0.0 0.0 0.00 0.00 0.00 35 1010.3
20260905193813 83 0 0.0 0.0 0.00 0.00 0.00 34 1010.6
20260905192916 83 292 0.0 2.0 0.00 0.00 0.00 34 1010.3
20260905191804 83 292 1.0 2.0 0.00 0.00 0.00 34 1010.4
20260905191115 83 298 0.0 4.0 0.00 0.00 0.00 34 1010.5
20260905190004 84 280 2.0 4.0 0.00 0.00 0.00 34 1010.5
20260905185614 84 271 1.0 2.0 0.00 0.00 0.00 34 1010.5
20260905184717 84 310 0.0 4.0 0.00 0.00 0.00 35 1010.1
20260905183814 84 292 0.0 4.0 0.00 0.00 0.00 35 1010.2
20260905182704 84 268 2.0 4.0 0.00 0.00 0.00 35 1009.9
20260905181804 84 280 0.0 4.0 0.00 0.00 0.00 34 1010.1
20260905181116 84 274 0.0 2.0 0.00 0.00 0.00 34 1010.0
20260905180213 85 284 1.0 6.0 0.00 0.00 0.00 34 1010.1
20260905175404 85 242 1.0 2.0 0.00 0.00 0.00 34 1010.0
20260905174717 85 249 2.0 4.0 0.00 0.00 0.00 34 1009.8
20260905173815 85 248 1.0 4.0 0.00 0.00 0.00 34 1009.8
20260905172917 85 249 1.0 4.0 0.00 0.00 0.00 33 1009.9
20260905171803 86 255 2.0 4.0 0.00 0.00 0.00 34 1009.5
20260905170904 86 230 2.0 4.0 0.00 0.00 0.00 34 1009.5
20260905170214 86 239 2.0 4.0 0.00 0.00 0.00 34 1009.5
20260905165404 87 236 2.0 4.0 0.00 0.00 0.00 33 1009.6
20260905164713 87 234 2.0 4.0 0.00 0.00 0.00 32 1009.5
20260905163603 89 249 2.0 8.0 0.00 0.00 0.00 30 1009.5
20260905162918 90 251 3.0 8.0 0.00 0.00 0.00 29 1009.5
20260905162015 91 246 2.0 4.0 0.00 0.00 0.00 28 1009.6
20260905161117 91 249 2.0 9.0 0.00 0.00 0.00 28 1009.3
20260905160215 91 241 4.0 9.0 0.00 0.00 0.00 27 1009.6
20260905155616 92 244 3.0 6.0 0.00 0.00 0.00 27 1009.8
20260905154504 93 302 1.0 13.0 0.00 0.00 0.00 26 1009.5
20260905153816 92 339 2.0 13.0 0.00 0.00 0.00 27 1009.8
20260905152913 92 290 3.0 17.0 0.00 0.00 0.00 27 1009.6
20260905152016 93 280 2.0 14.0 0.00 0.00 0.00 26 1009.7
20260905151113 92 285 8.0 16.0 0.00 0.00 0.00 27 1009.6
20260905150215 93 318 4.0 14.0 0.00 0.00 0.00 27 1009.7
20260905145403 94 304 2.0 11.0 0.00 0.00 0.00 26 1009.3
20260905144503 94 331 2.0 17.0 0.00 0.00 0.00 26 1009.5
20260905143816 93 307 3.0 18.0 0.00 0.00 0.00 26 1009.5
20260905142704 93 301 3.0 23.0 0.00 0.00 0.00 27 1009.4
20260905142016 91 287 13.0 20.0 0.00 0.00 0.00 28 1009.4
20260905141113 93 274 4.0 18.0 0.00 0.00 0.00 27 1009.4
20260905140004 93 298 5.0 18.0 0.00 0.00 0.00 27 1009.6
20260905135617 93 304 8.0 18.0 0.00 0.00 0.00 27 1009.3
20260905134715 92 311 8.0 18.0 0.00 0.00 0.00 27 1009.4
20260905133817 91 285 9.0 15.0 0.00 0.00 0.00 28 1009.4
20260905132914 95 284 4.0 15.0 0.00 0.00 0.00 28 1009.5
20260905132017 96 280 2.0 9.0 0.00 0.00 0.00 28 1009.5
20260905131114 96 261 3.0 9.0 0.00 0.00 0.00 27 1009.6
20260905130004 95 239 4.0 8.0 0.00 0.00 0.00 28 1009.5
20260905125404 95 244 3.0 7.0 0.00 0.00 0.00 28 1009.6
20260905124715 95 240 2.0 7.0 0.00 0.00 0.00 28 1009.6
20260905123603 94 255 2.0 7.0 0.00 0.00 0.00 28 1009.4
20260905122703 93 249 3.0 11.0 0.00 0.00 0.00 28 1009.8
20260905121803 94 237 2.0 7.0 0.00 0.00 0.00 28 1009.7
20260905120903 94 261 2.0 8.0 0.00 0.00 0.00 28 1009.8
20260905120217 94 247 4.0 8.0 0.00 0.00 0.00 29 1009.7
20260905115403 93 261 3.0 8.0 0.00 0.00 0.00 29 1009.8
20260905114504 93 253 3.0 8.0 0.00 0.00 0.00 29 1010.0
20260905113813 93 264 2.0 8.0 0.00 0.00 0.00 30 1010.1
20260905112704 92 226 3.0 8.0 0.00 0.00 0.00 31 1010.2
20260905111803 92 235 4.0 7.0 0.00 0.00 0.00 30 1010.1
20260905110903 92 230 3.0 7.0 0.00 0.00 0.00 31 1010.2
20260905110218 92 245 4.0 11.0 0.00 0.00 0.00 30 1010.2
20260905105403 91 238 5.0 11.0 0.00 0.00 0.00 31 1010.3
20260905104717 92 261 2.0 7.0 0.00 0.00 0.00 30 1009.8
20260905103814 91 260 3.0 8.0 0.00 0.00 0.00 31 1010.2
20260905102704 92 251 3.0 8.0 0.00 0.00 0.00 31 1010.1
20260905101804 91 243 2.0 9.0 0.00 0.00 0.00 31 1010.2
20260905101116 91 247 4.0 11.0 0.00 0.00 0.00 31 1010.2
20260905100004 91 256 2.0 14.0 0.00 0.00 0.00 30 1010.4
20260905095615 91 258 4.0 14.0 0.00 0.00 0.00 30 1010.3
20260905094503 91 292 4.0 16.0 0.00 0.00 0.00 31 1010.2
20260905093815 91 211 3.0 11.0 0.00 0.00 0.00 30 1010.3
20260905092917 91 286 3.0 16.0 0.00 0.00 0.00 31 1010.5
20260905092014 90 284 4.0 16.0 0.00 0.00 0.00 33 1010.6
20260905091117 90 274 4.0 15.0 0.00 0.00 0.00 33 1010.5
20260905090214 89 236 4.0 9.0 0.00 0.00 0.00 33 1010.6
20260905085616 90 302 4.0 16.0 0.00 0.00 0.00 33 1010.7